COSMOS 249 DEB, 3695

Orbit data source: Space-Track

COSMOS 249 DEB, 3695 is space debris in LEO originally from a launch on Sun, 20 Oct 1968 UTC launched from the Tyuratam Missile And Space Complex (TTMTR). Debris objects in space refer to the collection of defunct objects orbiting the Earth. Examples of debris include non-operational satellites, rocket bodies, and fragments generated from explosions, collisions, or faulty payload assembly.

Loading next visibility...
COSMOS 249 DEB details
Identifier
3695, 1968-091AL
Orbit
LEO
Last TLE update15 hours ago
Origin
Flag of CISPKO (CIS)
ManufacturerUnknown
MissionSpacecraft
Bus & MotorUnknown
MassUnknown
Launch date (UTC)
1968-10-20 (56 years ago)
Launch vehicleUnknown
Launch site
Tyuratam Missile And Space Complex (TTMTR)
Object type
Payload
Rocket body
Debris
Shape & HBRUnknown
Radar Cross SectionSmall (<0.1 m²)

Expand to show TLE details & history

TLE from 15 hours ago
0 COSMOS 249 DEB
1 03695U 68091AL  24346.73443393  .00003450  00000-0  34597-2 0  9994
2 03695  62.2318 200.1883 0691225 111.0526 256.5782 13.04356350600034
Epoch: 2024-12-11T17:37Z
Definitive object data (Epoch: 2024-12-11T17:37:35.091Z)
Latitude0.00001°
Longitude-145.13277°
Altitude1,402.598 km
Speed7.086 km/s
True Right ascension13h 20m 45s
True Declination0° 00' 00"
Sunlit
Object was in daylight at TLE epoch
Visualization TLE readout
Latitude25.08216°
Longitude-132.49439°
Altitude1,143.67 km
Speed7.333 km/s
Apparent Right ascension16h 06m 38s
Apparent Declination-5° 20' 47"
Sunlit
Object is in daylight
Visualization observer readout
Local Sidereal Time06:55:12
Azimuth58.949° ENE
Elevation-38.756°
Doppler factor1
Orbital elements
Apogee altitude1,770.924 km
Perigee altitude717.194 km
Semi-major axis7,622.196 km
Eccentricity0.0691225
Inclination62.2318°
RAAN200.1883°
Arg. of periapsis111.0526°
True anomaly249.04697°
Mean anomaly256.5782°
Eccentric anomaly252.79499°
Mean motion3.26154 °/min
BSTAR0.0034597
Orbital period110.38 mins
Loading maneuver chart data...

COSMOS 249 DEB Visibility forecast

Observer location: undefined°, undefined

Span
Click to sort rows by Start time (UTC) header in descending order
Start Az.
Max El. time (UTC)
Max El. Az.
Max El.
End time (UTC)
End Az.
12 mins2024-12-12 15:48:32.821Z195.774° SSW2024-12-12 15:55:32.821Z113.423° SE39.385°2024-12-12 16:00:32.821Z46.386° ENE
8 mins2024-12-12 17:45:32.821Z266.434° W2024-12-12 17:49:32.821Z315.491° NNW25.61°2024-12-12 17:53:32.821Z10.165° NNE
6 mins2024-12-12 23:36:32.821Z0.972° NNE2024-12-12 23:38:32.821Z32.951° NE22.54°2024-12-12 23:42:32.821Z92.932° ESE
8 mins2024-12-13 01:29:32.821Z305.521° NW2024-12-13 01:33:32.821Z225.122° WSW34.146°2024-12-13 01:37:32.821Z172.095° S
|